(80999) = 2000 EZ29 = 1993 FS53

Discovered at Socorro on 2000-03-05 by LINEAR.

Orbit

Orbit type: Main Belt

Note: WebGL enabled browser required.

epoch2023-09-13.0
epoch JD2460200.5
perihelion date2021-03-27.55435
perihelion JD2459301.05435
argument of perihelion (°)23.40418
ascending node (°)54.81634
inclination (°)3.09424
eccentricity0.1858593
perihelion distance (AU)1.9144670
Tisserand w.r.t. Jupiter3.5
ΔV w.r.t. Earth (km/sec)8.7
semimajor axis (AU)2.3515185
mean anomaly (°)245.84205
mean daily motion (°/day)0.27332620
aphelion distance (AU)2.789
period (years)3.61
P-vector [x]0.20461888
P-vector [y]0.88932549
P-vector [z]0.40893922
Q-vector [x]-0.97784702
Q-vector [y]0.16688774
Q-vector [z]0.12634747
absolute magnitude16.35
phase slope0.15
uncertainty0
referenceMPO 777113
observations used966
oppositions15
arc length (days)11179
first opposition used1993
last opposition used2023
residual rms (arc-secs)0.71
perturbers coarse indicatorM-v
perturbers precise indicator003Ek
first observation date used1993-03-23.0
last observation date used2023-10-31.0
computer nameMPCLINUX
JD of orbit computation2456731.620962
perihelion JD uncertainty (days)5.4612E-05
argument of perihelion uncertainty (°)6.8434E-05
ascending node uncertainty (°)6.5500E-05
inclination uncertainty (°)4.7173E-06
eccentricity uncertainty 4.2973E-08
perihelion distance uncertainty (AU)1.0269E-07
Minimum Orbit Intersection Distances (in AU)
for orbit epoch: 2460200.5, reference: E2023-V03
Mercury1.60725
Venus1.19426
Earth0.92913
Mars0.34251
Jupiter2.46229
Saturn7.1178
Uranus16.0384
Neptune27.592

Observations

981 total observations over interval: 1993 03 17.19062 – 2023 10 31.222203
These data are available for download (format description).

Date (UT) J2000 RA J2000 Dec Magn Location Ref
1993 03 17.19062 12 34 34.05 +00 48 01.6 18.6   809 – European Southern Observatory, La Silla MPC 23620
1993 03 23.12188 12 28 46.31 +01 20 48.5 18.7   809 – European Southern Observatory, La Silla MPS 62919
2000 02 04.30772 10 52 06.57 +13 09 56.6 19.0   704 – Lincoln Laboratory ETS, New Mexico MPS 16904
2000 02 04.32210 10 52 05.81 +13 10 01.4 19.6   704 – Lincoln Laboratory ETS, New Mexico MPS 16904
2000 02 04.33655 10 52 05.12 +13 10 06.1 19.1   704 – Lincoln Laboratory ETS, New Mexico MPS 16904
2000 02 04.35086 10 52 04.59 +13 10 11.8 19.2   704 – Lincoln Laboratory ETS, New Mexico MPS 16904
2000 02 11.30574 10 46 15.95 +13 51 05.0 18.1   704 – Lincoln Laboratory ETS, New Mexico MPS 16904
2000 02 11.31739 10 46 15.20 +13 51 09.1 18.5   704 – Lincoln Laboratory ETS, New Mexico MPS 16904
2000 02 11.32011 10 46 15.10 +13 51 10.2 18.6   704 – Lincoln Laboratory ETS, New Mexico MPS 16904
2000 02 11.33178 10 46 14.39 +13 51 14.0 18.7   704 – Lincoln Laboratory ETS, New Mexico MPS 16904
2000 02 11.33450 10 46 14.23 +13 51 14.6 18.2   704 – Lincoln Laboratory ETS, New Mexico MPS 16904
2000 02 11.34617 10 46 13.51 +13 51 19.3 18.6   704 – Lincoln Laboratory ETS, New Mexico MPS 16904
2000 02 11.34889 10 46 13.40 +13 51 20.4 18.7   704 – Lincoln Laboratory ETS, New Mexico MPS 16904
2000 02 11.36057 10 46 12.69 +13 51 24.6 18.4   704 – Lincoln Laboratory ETS, New Mexico MPS 16904
2000 02 11.36330 10 46 12.63 +13 51 23.8 18.7   704 – Lincoln Laboratory ETS, New Mexico MPS 16904
2000 02 11.37499 10 46 11.94 +13 51 30.0 18.9   704 – Lincoln Laboratory ETS, New Mexico MPS 16904
2000 02 25.32754 10 32 21.53 +15 12 06.1 19.7 R 703 – Catalina Sky Survey MPS 16904
2000 02 25.33916 10 32 20.63 +15 12 09.0 18.9 R 703 – Catalina Sky Survey MPS 16904
2000 02 25.35081 10 32 20.04 +15 12 13.7 19.6 R 703 – Catalina Sky Survey MPS 16904
2000 03 05.24587 10 23 30.03 +15 53 23.4 18.9   704 – Lincoln Laboratory ETS, New Mexico MPS 11396
2000 03 05.25969 10 23 29.20 +15 53 26.6 18.9   704 – Lincoln Laboratory ETS, New Mexico MPS 11396
2000 03 05.27398 10 23 28.34 +15 53 30.6 19.2   704 – Lincoln Laboratory ETS, New Mexico MPS 11396
2000 03 05.28753 10 23 27.57 +15 53 33.2 19.1   704 – Lincoln Laboratory ETS, New Mexico MPS 11396
2000 03 05.30106 10 23 26.72 +15 53 36.9 18.8   704 – Lincoln Laboratory ETS, New Mexico MPS 11396
2000 03 09.29490 10 19 49.65 +16 07 49.8 18.7   704 – Lincoln Laboratory ETS, New Mexico MPS 11396
2000 03 09.30807 10 19 48.93 +16 07 52.8 18.7   704 – Lincoln Laboratory ETS, New Mexico MPS 11396
2000 03 09.32128 10 19 48.22 +16 07 54.6 18.9   704 – Lincoln Laboratory ETS, New Mexico MPS 11396
2000 03 09.33449 10 19 47.48 +16 07 57.3 18.9   704 – Lincoln Laboratory ETS, New Mexico MPS 11396
2000 03 09.34775 10 19 46.76 +16 07 59.7 19.3   704 – Lincoln Laboratory ETS, New Mexico MPS 11396
2000 03 11.12984 10 18 16.79 +16 13 21.6 18.7 R 699 – Lowell Observatory-LONEOS MPS 11396
2000 03 11.15352 10 18 15.59 +16 13 24.2   699 – Lowell Observatory-LONEOS MPS 11396
2000 03 11.17719 10 18 14.33 +16 13 29.8   699 – Lowell Observatory-LONEOS MPS 11396
2000 03 11.20083 10 18 13.07 +16 13 34.1   699 – Lowell Observatory-LONEOS MPS 11396
2002 09 16.47290 01 45 38.30 +06 54 00.3 20.2   608 – Haleakala-AMOS MPS 62919
2002 09 16.48371 01 45 38.07 +06 53 58.3 20.9   608 – Haleakala-AMOS MPS 62919
2002 09 16.49448 01 45 37.77 +06 53 57.4 20.1   608 – Haleakala-AMOS MPS 62919
2002 09 29.41179 01 38 18.62 +06 17 50.2 19.6   608 – Haleakala-AMOS MPS 62919
2002 09 29.42243 01 38 18.11 +06 17 47.5 19.6   608 – Haleakala-AMOS MPS 62919
2002 09 29.43353 01 38 17.57 +06 17 45.3 19.9   608 – Haleakala-AMOS MPS 62919
2002 10 01.32448 01 36 50.18 +06 10 59.2 18.1 R 699 – Lowell Observatory-LONEOS MPS 62919
2002 10 01.34648 01 36 49.11 +06 10 54.3   699 – Lowell Observatory-LONEOS MPS 62919
2002 10 01.36845 01 36 48.00 +06 10 49.6   699 – Lowell Observatory-LONEOS MPS 62919
2002 10 01.39043 01 36 46.91 +06 10 44.3   699 – Lowell Observatory-LONEOS MPS 62919
2002 10 02.32533 01 36 01.74 +06 07 21.1 18.7   704 – Lincoln Laboratory ETS, New Mexico MPS 62919
2002 10 02.34073 01 36 00.90 +06 07 16.8 18.9   704 – Lincoln Laboratory ETS, New Mexico MPS 62919
2002 10 02.35637 01 36 00.08 +06 07 13.7 19.0   704 – Lincoln Laboratory ETS, New Mexico MPS 62919
2002 10 02.37181 01 35 59.37 +06 07 09.1 19.0   704 – Lincoln Laboratory ETS, New Mexico MPS 62919
2002 10 02.38744 01 35 58.51 +06 07 05.7 18.7   704 – Lincoln Laboratory ETS, New Mexico MPS 62919
2002 10 03.25505 01 35 16.03 +06 03 48.1 17.9   704 – Lincoln Laboratory ETS, New Mexico MPS 62919
2002 10 03.27007 01 35 15.26 +06 03 44.9 18.0   704 – Lincoln Laboratory ETS, New Mexico MPS 62919
2002 10 03.28501 01 35 14.48 +06 03 42.1 18.5   704 – Lincoln Laboratory ETS, New Mexico MPS 62919
2002 10 03.29994 01 35 13.66 +06 03 38.6 18.4   704 – Lincoln Laboratory ETS, New Mexico MPS 62919
2002 10 03.31485 01 35 12.91 +06 03 34.8 18.3   704 – Lincoln Laboratory ETS, New Mexico MPS 62919
2002 10 11.25003 01 28 02.73 +05 32 03.7 18.8   704 – Lincoln Laboratory ETS, New Mexico MPS 62919
2002 10 11.26592 01 28 01.75 +05 31 59.9 19.0   704 – Lincoln Laboratory ETS, New Mexico MPS 62919
2002 10 11.28166 01 28 00.82 +05 31 56.7 19.3   704 – Lincoln Laboratory ETS, New Mexico MPS 62919
2002 10 11.29741 01 27 59.86 +05 31 52.1 19.2   704 – Lincoln Laboratory ETS, New Mexico MPS 62919
2002 10 11.31326 01 27 58.86 +05 31 47.9 19.7   704 – Lincoln Laboratory ETS, New Mexico MPS 62919
2002 10 31.24763 01 09 05.80 +04 21 35.2 19.4   704 – Lincoln Laboratory ETS, New Mexico MPS 65583
2002 10 31.26482 01 09 04.90 +04 21 32.4 19.2   704 – Lincoln Laboratory ETS, New Mexico MPS 65583
2002 10 31.28191 01 09 03.95 +04 21 29.9 19.5   704 – Lincoln Laboratory ETS, New Mexico MPS 65583
2002 10 31.29903 01 09 03.07 +04 21 27.1 19.1   704 – Lincoln Laboratory ETS, New Mexico MPS 65583
2002 10 31.31610 01 09 02.18 +04 21 24.4 19.0   704 – Lincoln Laboratory ETS, New Mexico MPS 65583
2002 11 03.49742 01 06 29.25 +04 14 24.3 19.3   608 – Haleakala-AMOS MPS 65583
2002 11 03.50770 01 06 28.74 +04 14 22.7 19.7   608 – Haleakala-AMOS MPS 65583
2002 11 03.51800 01 06 28.29 +04 14 21.9 19.2   608 – Haleakala-AMOS MPS 65583
2002 11 06.16294 01 04 33.34 +04 09 49.0 18.5   704 – Lincoln Laboratory ETS, New Mexico MPS 65583
2002 11 06.17940 01 04 32.55 +04 09 47.8 18.9   704 – Lincoln Laboratory ETS, New Mexico MPS 65583
2002 11 06.19583 01 04 31.83 +04 09 46.1 18.9   704 – Lincoln Laboratory ETS, New Mexico MPS 65583
2002 11 06.21234 01 04 31.08 +04 09 45.3 18.7   704 – Lincoln Laboratory ETS, New Mexico MPS 65583
2002 11 06.22876 01 04 30.37 +04 09 44.1 18.9   704 – Lincoln Laboratory ETS, New Mexico MPS 65583
2002 11 10.15490 01 02 01.24 +04 05 28.0 18.7   704 – Lincoln Laboratory ETS, New Mexico MPS 65583
2002 11 10.17077 01 02 00.63 +04 05 27.5 18.6   704 – Lincoln Laboratory ETS, New Mexico MPS 65583
2002 11 10.18664 01 02 00.01 +04 05 27.1 19.0   704 – Lincoln Laboratory ETS, New Mexico MPS 65583
2002 11 10.20253 01 01 59.45 +04 05 26.2 19.0   704 – Lincoln Laboratory ETS, New Mexico MPS 65583
2002 11 10.21844 01 01 58.79 +04 05 25.6 19.1   704 – Lincoln Laboratory ETS, New Mexico MPS 65583
2002 11 21.16823 00 57 41.44 +04 10 15.1 18.7   644 – Palomar Mountain/NEAT MPS 67628
2002 11 21.18936 00 57 41.12 +04 10 16.9 18.9   644 – Palomar Mountain/NEAT MPS 67628
2002 11 21.22103 00 57 40.63 +04 10 20.0 18.9   644 – Palomar Mountain/NEAT MPS 67628
2002 12 05.13932 00 58 16.05 +04 52 06.8 19.0   704 – Lincoln Laboratory ETS, New Mexico MPS 67628
2002 12 05.15456 00 58 16.27 +04 52 10.5 19.3   704 – Lincoln Laboratory ETS, New Mexico MPS 67628
2002 12 05.16963 00 58 16.55 +04 52 13.8 19.4   704 – Lincoln Laboratory ETS, New Mexico MPS 67628
2002 12 05.18483 00 58 16.77 +04 52 18.6 19.1   704 – Lincoln Laboratory ETS, New Mexico MPS 67628
2002 12 05.19988 00 58 17.01 +04 52 23.2 19.4   704 – Lincoln Laboratory ETS, New Mexico MPS 67628
2002 12 10.15494 01 00 07.25 +05 16 19.2 19.5   704 – Lincoln Laboratory ETS, New Mexico MPS 67628
2002 12 10.17029 01 00 07.65 +05 16 23.9 19.5   704 – Lincoln Laboratory ETS, New Mexico MPS 67628
